Flag Weather past 2 weeks in Ashkelon, Israel

Now
68 °F

Partly sunny.


Feels Like: 68 °F
Forecast: 65 / 71 °F
Wind: 7 mph from Southeast

Location: Ben Gurion International Airport

Current Time: Oct 31, 2014 at 1:20:40 PM

Latest Report: Oct 31, 2014 at 12:50 PM


Visibility: N/A

Pressure: 29.92 "Hg

Humidity: 83%

Dew point: 63 °F

Location of AshkelonLocation

Historic Weather in Ashkelon — Graph

°F

Ashkelon temperature yesterday

Maximum temperature yesterday: 79 °F (at 12:50 PM)
Minimum temperature yesterday: 64 °F (at 5:20 AM)
Average temperature yesterday: 71 °F

Past Weeks' High & Low Weather Summary

 TemperatureHumidityPressure
High88 °F (Oct 25, 12:20 PM)94% (Oct 31, 5:50 AM)30.12 "Hg (Oct 31, 5:50 AM)
Low59 °F (Oct 22, 4:50 AM)24% (Oct 25, 12:50 PM)29.74 "Hg (Oct 19, 1:50 PM)
Average72 °F64%29.98 "Hg
* Reported Oct 16 12:20 PM — Oct 31 11:50 AM, Ashkelon, Weather by CustomWeather, © 2014

Note: Actual official high and low records may vary slightly from our data, if they occured in-between our weather recording intervals... More about our weather records

Advertising

Ashkelon weather history for previous 24 hours

 ConditionsComfort  
Time TempWeatherWind HumidityBarometerVisibility
11:50 AM
Oct 31
66 °FRain showers. Broken clouds.5 mph78%29.92 "Hg4 mi
11:20 AM72 °FScattered clouds.12 mph78%29.92 "HgN/A
10:50 AM72 °FScattered clouds.10 mph73%29.92 "HgN/A
10:20 AM68 °FScattered clouds.9 mph83%29.92 "HgN/A
9:50 AM68 °FScattered clouds.12 mph78%29.95 "HgN/A
9:20 AM70 °FScattered clouds.8 mph78%29.95 "HgN/A
8:50 AM66 °FScattered clouds.8 mph88%29.95 "HgN/A
8:20 AM66 °FScattered clouds.8 mph83%29.95 "HgN/A
7:50 AM68 °FScattered clouds.9 mph83%29.92 "HgN/A
7:20 AM66 °FScattered clouds.8 mph88%29.92 "HgN/A
6:50 AM64 °FScattered clouds.7 mph88%29.92 "HgN/A
6:20 AM63 °FScattered clouds.8 mph94%29.92 "HgN/A
5:50 AM63 °FLight rain. Passing clouds.8 mph94%29.92 "HgN/A
5:20 AM64 °FPassing clouds.8 mph83%29.92 "HgN/A
4:50 AM64 °FPassing clouds.5 mph83%29.92 "HgN/A
4:20 AM64 °FRain. Passing clouds.6 mph83%29.95 "Hg5 mi
3:50 AM64 °FLight rain. Passing clouds.2 mph83%29.92 "HgN/A
3:20 AM64 °FPassing clouds.2 mph83%29.92 "HgN/A
2:50 AM64 °FPassing clouds.5 mph83%29.92 "HgN/A
2:20 AM64 °FPassing clouds.8 mph83%29.92 "HgN/A
1:50 AM64 °FPassing clouds.7 mph83%29.92 "HgN/A
1:20 AM64 °FPassing clouds.9 mph83%29.92 "HgN/A
12:50 AM66 °FPassing clouds.7 mph83%29.92 "HgN/A
12:20 AM66 °FPassing clouds.8 mph78%29.92 "HgN/A
11:50 PM
Oct 30
66 °FPassing clouds.8 mph78%29.92 "HgN/A
11:20 PM68 °FPassing clouds.6 mph73%29.95 "HgN/A
10:50 PM68 °FPassing clouds.2 mph73%29.95 "HgN/A
10:20 PM68 °FPassing clouds.7 mph73%29.95 "HgN/A
9:50 PM68 °FPassing clouds.6 mph73%29.95 "HgN/A
9:20 PM68 °FThundershowers. Passing clouds.3 mph73%29.95 "HgN/A
8:50 PM68 °FThundershowers. Passing clouds.6 mph73%29.95 "HgN/A
8:20 PM68 °FClear.6 mph73%29.95 "Hg10 mi
7:50 PM70 °FPassing clouds.5 mph69%29.95 "HgN/A
7:20 PM70 °FPassing clouds.5 mph69%29.95 "HgN/A
6:50 PM70 °FPassing clouds.6 mph69%29.95 "HgN/A
6:20 PM70 °FPassing clouds.5 mph69%29.95 "HgN/A
5:50 PM68 °FPassing clouds.6 mph73%29.95 "HgN/A
5:20 PM70 °FPassing clouds.7 mph73%29.95 "HgN/A
4:50 PM70 °FPartly sunny.7 mph73%29.95 "HgN/A
4:20 PM72 °FPartly sunny.12 mph69%29.95 "HgN/A
3:50 PM73 °FBroken clouds.16 mph69%29.92 "HgN/A
3:20 PM75 °FBroken clouds.13 mph61%29.92 "HgN/A
2:50 PM77 °FScattered clouds.12 mph54%29.92 "HgN/A
2:20 PM77 °FScattered clouds.10 mph54%29.92 "HgN/A
1:50 PM79 °FScattered clouds.12 mph48%29.92 "HgN/A
1:20 PM79 °FScattered clouds.10 mph51%29.92 "HgN/A
Weather by CustomWeather, © 2014

See weather overviewHow to use our weather pages